Probability
0 1 2 3 1 0 0 0 1 2 4 4 3 5 8 14 19 19 20 22 23 22 20 20 21 22 21 19 16 15 15 15 15 15 16 16 17 17 15 14 12 9 8 8
0 1 2 3 2 1 1 2 2 4 5 4 4 6 10 15 19 20 20 23 24 24 24 22 22 22 20 17 14 13 13 14 15 16 16 17 17 16 14 12 10 8 6 5
0 0 1 2 2 2 4 4 5 5 4 4 5 7 9 13 17 18 20 22 23 25 27 25 22 20 17 14 14 14 14 14 15 17 18 16 15 14 12 11 8 6 4 2
0 0 0 1 1 2 4 4 4 3 3 3 6 8 9 12 15 16 18 20 21 24 25 23 19 16 11 10 13 16 16 16 17 19 18 16 13 11 11 9 7 4 3 1
0 0 0 1 1 2 2 2 1 1 2 4 7 9 10 13 16 17 18 20 21 22 20 17 14 11 8 8 12 15 15 16 18 18 16 14 11 9 9 7 5 3 2 1
0 1 1 2 3 2 1 0 0 1 3 6 9 10 11 15 19 19 19 20 22 20 15 12 10 8 6 7 11 13 13 14 16 16 14 11 9 8 7 6 4 3 1 0
1 2 3 4 4 3 1 1 1 2 4 7 10 12 13 15 17 17 16 18 20 17 13 11 10 8 6 7 10 11 12 13 14 13 12 10 8 7 7 6 4 2 1 0
1 2 4 5 5 4 2 3 3 4 5 8 12 14 14 13 13 13 14 16 17 17 14 12 11 9 8 8 9 9 10 11 12 12 11 9 7 6 6 6 4 3 1 0
4 5 6 6 6 5 4 4 5 6 8 11 14 14 13 11 10 10 12 16 17 17 15 13 12 10 10 9 9 9 9 10 10 11 10 9 8 7 7 6 5 4 3 2
9 10 9 8 7 7 5 5 6 8 10 12 13 12 11 11 11 11 14 17 18 19 17 14 12 10 10 9 8 8 8 8 9 9 10 9 9 8 8 7 6 6 5 5
9 9 9 8 7 7 7 8 8 9 10 10 11 10 11 12 13 14 17 19 21 21 19 16 12 8 7 7 8 9 8 7 6 6 8 9 9 9 8 6 5 5 5 5
4 4 5 5 5 7 9 9 9 10 10 10 10 11 13 15 16 18 19 21 21 20 20 18 12 7 5 6 7 7 6 4 3 3 4 6 7 8 7 4 2 2 2 2
1 2 3 3 4 7 9 9 10 11 12 13 14 15 17 18 18 19 19 19 19 18 18 16 12 8 6 5 5 4 2 1 1 1 1 2 4 6 6 4 1 0 0 0
1 2 3 3 5 8 10 10 11 12 13 15 16 17 17 19 20 18 16 15 15 15 14 12 10 8 6 4 3 3 1 1 0 0 0 1 2 4 5 5 3 1 0 0
0 1 2 4 6 8 9 9 8 8 10 13 14 14 15 17 18 15 13 12 12 12 10 8 7 7 5 3 3 3 3 2 1 1 1 2 3 4 4 5 4 2 1 0
0 0 1 3 6 7 8 7 5 4 7 9 10 11 11 12 13 12 11 11 11 10 9 7 6 6 5 4 3 3 3 3 3 2 2 3 3 3 3 4 3 3 2 1
0 0 1 4 6 7 8 7 5 3 5 7 8 8 8 8 8 9 9 9 9 9 8 7 5 4 4 4 3 3 3 3 3 2 2 2 2 2 3 3 3 3 2 1
1 1 2 4 6 7 9 8 6 4 4 5 6 6 6 6 7 7 8 8 8 7 6 4 3 3 3 3 3 3 3 2 1 1 1 1 0 1 2 3 3 3 2 1
2 2 3 5 6 7 7 7 5 4 3 4 5 4 4 5 6 6 6 6 5 4 3 1 1 2 2 2 2 2 1 1 0 0 0 0 0 0 1 1 2 1 1 1
3 3 3 4 4 4 4 4 4 4 3 3 4 3 3 4 4 4 3 3 2 1 0 0 0 1 1 1 1 1 0 0 0 0 0 0 0 0 0 0 0 0 0 1
3 3 3 3 3 2 1 1 2 2 1 2 3 3 3 3 2 2 1 1 0 0 0 0 0 0 0 0 0 0 0 0 0 0 0 0 0 0 0 0 0 0 0 0
2 3 3 3 3 1 0 0 1 0 0 1 2 3 3 1 1 1 0 0 0 0 0 0 0 0 0 0 0 0 0 0 0 0 0 0 0 0 0 0 0 0 0 0
1 2 3 3 3 2 1 0 1 0 0 1 2 3 2 1 0 0 0 0 0 0 0 0 0 0 0 0 0 0 0 0 0 0 0 0 0 0 0 0 0 0 0 0
1 2 2 2 2 2 1 0 0 0 1 2 3 2 1 0 0 0 0 0 0 0 0 0 0 0 0 0 0 0 0 0 0 0 0 0 0 0 0 0 0 0 0 0
0 1 1 1 1 1 0 0 0 0 1 2 2 1 0 0 0 0 0 0 0 0 0 0 0 0 0 0 0 0 0 0 0 0 0 0 0 0 0 0 0 0 0 0
0 0 0 0 0 0 0 0 0 0 0 1 1 0 0 0 0 0 0 0 0 0 0 0 0 0 0 0 0 0 0 0 0 0 0 0 0 0 0 0 0 0 0 0
0 0 0 0 0 0 0 1 1 1 0 0 0 0 0 0 0 0 0 0 0 0 0 0 0 0 0 0 0 0 0 0 0 0 0 0 0 0 0 0 0 0 0 0
Wind_Speed
4 3 3 3 4 5 5 7 8 8 7 7 6 6 5 5 5 5 5 6 7 7 6 7 7 7 7 6 6 6 6 6 5 4 4 4 4 3 3 3 3 2 2 2
1 2 3 2 2 4 4 4 4 3 6 5 3 1 2 4 6 6 6 6 6 6 7 8 8 8 7 7 6 7 7 6 5 5 4 4 4 3 4 3 3 3 3 2
3 2 2 2 4 5 4 4 6 7 7 2 1 3 5 5 6 7 7 7 7 7 7 7 7 7 8 7 7 7 6 5 5 5 5 4 4 4 4 3 3 3 2 2
2 3 4 7 3 4 4 4 4 4 3 4 5 5 3 4 6 6 6 7 7 6 6 6 6 6 6 5 6 7 6 5 5 6 5 5 4 4 3 3 3 2 2 2
4 3 3 3 2 3 4 3 4 5 4 3 2 3 1 1 3 5 6 6 7 7 7 7 8 7 7 6 4 5 5 5 5 6 6 5 5 3 2 3 2 2 2 2
4 4 5 6 3 1 3 3 3 5 5 4 4 2 4 2 3 3 4 5 6 7 8 7 7 8 8 7 5 5 5 5 4 5 5 5 4 3 2 3 3 2 2 1
4 3 5 4 5 1 4 7 2 3 4 5 5 6 4 4 4 4 4 6 7 8 8 7 7 8 8 7 6 5 4 4 5 4 4 4 4 3 3 3 3 2 2 1
4 3 5 3 1 3 5 2 0 1 2 4 4 3 3 4 5 5 5 5 7 8 7 6 8 9 8 6 5 4 5 5 5 4 4 4 4 3 3 3 3 2 1 0
5 5 4 2 2 3 2 1 0 1 2 4 4 3 3 3 4 4 5 5 5 7 7 6 6 8 8 6 6 6 6 5 4 4 4 4 4 4 3 3 2 2 2 1
1 2 2 2 2 2 1 1 1 2 3 4 4 3 3 3 3 4 4 5 5 7 8 6 5 5 6 7 7 7 6 5 4 4 3 3 3 3 3 3 3 3 3 2
1 2 2 3 2 2 2 2 2 2 2 3 4 3 3 3 3 3 3 4 6 7 7 7 6 6 6 7 8 7 6 4 4 3 3 3 2 2 3 2 3 3 3 3
4 4 2 2 2 2 2 3 2 3 3 2 2 3 3 3 3 3 4 4 5 5 6 6 6 5 5 6 8 8 6 4 3 3 3 3 3 1 1 1 2 2 2 3
4 2 2 2 2 2 2 2 2 2 2 2 1 3 4 3 3 3 4 4 5 5 5 5 5 5 5 6 7 7 6 5 4 4 3 3 3 3 2 1 2 2 2 3
2 1 0 1 1 2 2 3 3 3 3 2 2 2 4 4 4 4 4 4 4 5 5 5 5 5 5 5 6 6 5 5 5 4 3 3 3 3 3 2 1 0 1 2
1 1 2 1 1 2 2 3 4 3 3 3 3 3 3 4 4 3 4 4 5 5 4 4 4 4 4 6 6 6 5 4 3 3 3 2 2 2 2 2 2 1 0 1
1 1 1 2 2 2 3 3 3 2 2 1 2 2 3 3 4 3 3 4 5 5 4 4 3 3 4 5 6 5 4 5 5 3 3 3 2 2 2 2 2 2 2 2
1 1 1 1 1 1 1 1 1 1 1 1 1 2 3 4 4 3 3 3 4 4 3 3 3 3 4 5 5 4 3 4 5 4 3 3 3 3 2 2 3 3 2 3
2 2 2 2 2 1 2 2 2 1 1 0 1 2 2 3 3 2 2 3 3 2 1 2 2 3 4 4 4 3 3 3 3 3 3 3 3 3 2 2 3 3 2 2
2 2 1 2 2 2 2 1 2 2 1 1 2 3 2 2 2 2 3 3 2 1 1 0 2 2 3 4 4 3 4 4 3 3 3 3 3 2 2 2 3 3 3 2
3 2 3 3 3 2 1 1 2 2 2 2 2 3 2 2 2 2 3 2 1 2 1 0 1 1 2 3 4 3 4 4 4 3 3 3 3 3 3 3 3 3 2 3
2 2 3 3 3 2 1 1 2 1 1 2 2 1 1 1 1 2 1 0 2 0 1 1 1 1 2 3 4 3 3 3 3 4 3 3 3 3 3 3 3 3 3 3
2 2 2 2 2 2 2 2 2 2 2 2 2 1 1 1 1 1 1 2 2 1 1 1 1 2 2 3 3 3 3 4 3 3 3 3 3 4 3 4 3 3 3 3
2 2 2 2 2 2 2 3 2 2 2 1 1 0 1 1 1 1 1 2 1 1 1 1 2 2 2 2 2 3 3 4 3 3 3 4 4 4 4 4 3 3 3 3
2 2 2 2 2 3 2 2 2 1 1 1 0 1 1 0 1 1 2 2 2 2 2 2 3 3 3 2 2 2 3 3 3 3 3 3 3 3 3 3 3 3 3 4
2 2 2 2 2 1 1 1 1 1 1 1 2 2 1 1 2 2 1 2 2 2 2 2 3 3 3 2 2 2 2 2 3 3 3 3 3 3 3 3 3 3 3 4
1 1 1 1 1 1 1 0 0 1 1 1 2 2 1 1 1 2 1 1 2 2 2 2 2 3 2 2 3 3 3 2 3 3 3 3 3 3 3 3 3 3 3 3
1 1 1 2 2 1 0 0 0 1 1 1 2 2 2 1 1 1 1 1 1 1 1 2 2 2 2 3 3 3 3 2 3 3 3 3 3 3 3 3 3 3 2 2
Wind_Direction
209 217 177 180 182 172 173 179 178 214 218 243 236 214 204 190 175 166 164 160 163 165 162 156 155 157 157 158 155 151 147 149 154 147 138 134 131 127 117 111 111 105 101 91
231 236 186 181 197 179 189 182 197 204 241 246 252 170 151 174 175 175 178 173 164 156 156 157 157 156 154 154 152 146 146 150 147 140 137 136 134 126 115 109 103 97 98 97
213 237 122 230 217 192 195 196 177 202 228 202 166 195 196 187 182 183 180 173 166 163 164 157 155 155 158 157 147 143 144 146 149 146 145 144 140 129 125 124 110 105 101 99
140 120 194 234 223 186 188 217 206 208 209 190 194 209 201 178 178 181 174 170 168 159 151 141 137 132 129 128 140 141 143 146 149 149 147 141 134 134 129 126 127 126 120 116
126 153 246 282 208 182 181 237 208 194 203 189 145 85 7 210 167 178 174 169 165 156 146 139 139 140 131 125 131 143 153 158 160 155 150 146 145 147 141 133 124 123 125 119
128 146 210 236 263 248 125 251 232 192 194 180 134 144 240 205 154 154 144 147 145 137 131 139 143 137 132 137 148 168 173 163 154 153 151 151 154 150 140 136 136 126 106 105
150 177 244 266 289 111 166 232 245 197 193 183 182 202 207 156 151 149 142 141 140 139 143 150 143 138 140 149 170 171 157 147 141 144 149 150 143 135 135 131 125 119 115 107
144 164 242 309 24 165 219 267 261 186 175 167 170 157 138 143 147 137 130 132 140 142 141 141 142 142 144 156 161 142 143 143 143 143 149 144 136 133 131 135 137 138 133 132
182 203 239 267 237 265 221 186 292 159 156 152 152 156 153 149 147 142 138 137 139 140 136 141 150 151 150 156 146 143 139 142 145 142 141 147 149 149 146 150 161 178 189 216
213 272 276 297 306 343 33 148 218 154 139 135 150 154 145 137 139 140 138 143 138 138 142 151 158 156 153 149 146 143 144 144 142 143 143 142 146 154 163 177 186 201 207 219
246 273 342 343 345 355 11 42 60 65 99 133 141 143 147 144 149 154 149 147 147 150 153 157 156 153 148 147 143 141 143 143 140 137 142 146 143 161 180 193 197 201 210 203
222 224 184 262 318 12 35 19 30 61 48 57 121 146 142 147 149 149 155 149 145 146 148 150 149 147 148 151 147 145 146 151 154 152 153 158 154 124 76 156 162 183 197 196
222 212 183 244 318 356 41 26 39 71 100 96 87 133 139 143 145 145 150 151 154 154 152 150 150 153 157 154 151 151 156 163 166 169 170 172 174 173 168 72 99 143 189 202
228 166 359 299 314 6 55 61 62 59 59 82 90 103 118 121 126 140 154 160 151 143 147 152 152 163 166 158 155 154 157 165 167 173 174 178 184 185 181 181 182 239 247 219
0 159 191 215 2 29 54 74 71 57 54 55 72 92 110 126 134 153 155 147 135 133 146 152 156 171 164 158 159 160 160 164 166 163 164 170 173 172 180 182 185 199 257 283
357 23 74 69 50 34 57 76 86 78 78 74 83 100 122 134 137 137 132 138 140 152 165 161 171 178 164 161 160 162 167 170 164 163 163 165 169 171 184 188 193 207 218 225
112 11 81 89 68 44 47 67 103 94 95 117 150 146 128 111 103 111 123 130 140 148 151 158 173 168 165 167 165 165 163 168 165 161 170 176 179 186 189 198 205 213 225 220
171 198 187 157 141 94 42 40 50 44 56 103 90 97 104 113 126 133 125 117 105 93 119 164 165 163 164 168 166 161 158 163 166 169 171 176 184 190 187 194 212 219 232 226
107 120 116 112 118 109 83 50 53 48 35 67 94 93 88 96 116 120 107 107 109 96 310 258 167 172 177 183 170 165 168 171 172 173 176 179 183 188 193 207 220 225 227 229
73 83 90 83 79 89 84 54 59 53 42 70 85 81 74 77 96 105 109 122 203 217 216 191 172 195 197 190 177 174 179 181 181 179 179 183 188 195 201 210 220 227 233 235
61 70 81 85 77 70 80 91 91 70 36 70 94 103 111 98 105 120 125 259 298 225 167 175 192 208 197 184 176 174 178 182 184 184 184 187 191 197 205 213 219 228 235 241
32 49 62 77 82 65 50 68 86 85 66 58 59 78 99 96 98 106 177 235 261 234 187 192 207 207 193 183 179 178 179 183 189 188 190 192 195 202 211 216 221 228 233 235
30 50 61 69 84 76 48 44 51 67 61 54 68 130 189 216 199 178 264 273 241 224 201 221 217 204 199 192 186 185 187 193 196 198 199 199 201 205 212 220 223 226 228 229
40 51 49 47 66 67 46 15 23 41 41 2 323 240 206 203 286 242 223 238 238 232 222 218 219 210 199 192 194 199 200 203 204 204 203 205 210 212 215 218 220 223 225 227
31 34 35 39 43 23 324 341 17 18 10 345 328 317 294 230 233 257 246 234 231 229 233 222 216 213 212 212 212 215 214 213 209 203 203 207 212 214 218 221 225 227 229 231
17 11 354 322 277 266 276 355 357 321 330 331 324 321 320 302 241 248 250 241 232 239 241 232 219 213 217 220 221 222 220 216 211 214 215 210 209 212 220 226 229 232 234 233
19 26 20 354 337 309 284 266 283 293 291 285 298 303 303 297 280 275 278 267 249 244 244 239 229 222 221 218 217 217 217 216 214 215 219 219 216 219 224 223 224 229 231 228